User: anonymous   Login
Location: Unspecified
(0.0000°N, 0.0000°E)
Time: 14:26:36
(UTC+00:00)
Language:

SRMSAT - Orbit

View from above orbital plane
View from above orbital plane
View from above satellite
View from above satellite

Ground track
Ground track

The orbit data is extracted from the following two-line orbital elements,

1 37841U 11058D   20221.86286528 +.00000325 +00000-0 +33494-4 0  9997
2 37841 019.9735 030.3468 0011881 099.5257 046.7720 14.10665594455572
Epoch (UTC): 08 August 2020 20:42:31
Eccentricity: 0.0011881
inclination: 19.9735°
perigee height: 848 km
apogee height: 865 km
right ascension of ascending node: 30.3468°
argument of perigee: 99.5257°
revolutions per day: 14.10665594
mean anomaly at epoch: 46.7720°
orbit number at epoch: 45557

The dashed part of the orbit path shows where the satellite is in the earth's shadow,  

DLR